INTELSAT NEW DAWN

Last updated on Nov. 13, 2019, 4:20 a.m. UTC

1 37392U 11016A   19316.85124914  .00000170  00000-0  00000+0 0  9994
2 37392   0.0228 179.8689 0001120  51.4545 159.6642  1.00271394 31367
UTC
Height (km)
Latitude
Longitude
Inclination
Orbital Period
UTC large
Height (km)
Speed (km/s)
/
Latitude / Longitude
Inclination (degrees)
Orbital Period (minutes)
Azimuth
Elevation
Range (km)
Doppler Factor
iOS Compass Heading
iOS Angle

Next 30 passes for location: Hong Kong

Rise time Rise Azimuth (degrees) Set time Set Azimuth (degrees) Duration Max altitude (degrees)

No matching passes for this satellites